Time,TemperatureF,DewpointF,PressureIn,WindDirection,WindDirectionDegrees,WindSpeedMPH,WindSpeedGustMPH,Humidity,HourlyPrecipIn,Conditions,Clouds,dailyrainin,SoftwareType,DateUTC
2013-09-30 00:02:00,63.0,49.0,28.83,NNW,337,3.3,4.0,60,0.00,,,0.00,Rainwise IP-100,2013-09-30 05:02:00,
2013-09-30 00:07:00,63.1,49.0,28.83,East,90,3.5,3.5,60,0.00,,,0.00,Rainwise IP-100,2013-09-30 05:07:00,
2013-09-30 00:12:00,63.2,49.0,28.83,ENE,67,3.7,5.0,60,0.00,,,0.00,Rainwise IP-100,2013-09-30 05:12:00,
2013-09-30 00:17:00,63.4,49.0,28.83,ESE,112,0.0,5.0,60,0.00,,,0.00,Rainwise IP-100,2013-09-30 05:17:00,
2013-09-30 00:22:00,63.4,49.0,28.83,NW,315,2.1,5.0,59,0.00,,,0.00,Rainwise IP-100,2013-09-30 05:22:00,
2013-09-30 00:27:00,63.3,49.0,28.83,NNE,22,0.0,5.0,60,0.00,,,0.00,Rainwise IP-100,2013-09-30 05:27:00,
2013-09-30 00:32:00,63.4,49.0,28.82,ESE,112,4.0,4.0,60,0.00,,,0.00,Rainwise IP-100,2013-09-30 05:32:00,
2013-09-30 00:37:00,63.4,49.0,28.82,East,90,1.2,5.0,60,0.00,,,0.00,Rainwise IP-100,2013-09-30 05:37:00,
2013-09-30 00:42:00,63.3,49.0,28.81,ENE,67,2.1,4.0,60,0.00,,,0.00,Rainwise IP-100,2013-09-30 05:42:00,
2013-09-30 00:47:00,63.2,49.0,28.82,ESE,112,6.1,6.1,60,0.00,,,0.00,Rainwise IP-100,2013-09-30 05:47:00,
2013-09-30 00:52:00,63.1,49.0,28.82,North,360,2.1,6.0,60,0.00,,,0.00,Rainwise IP-100,2013-09-30 05:52:00,
2013-09-30 00:57:00,63.0,49.0,28.82,ESE,112,2.6,6.0,60,0.00,,,0.00,Rainwise IP-100,2013-09-30 05:57:00,
2013-09-30 01:02:00,62.9,49.0,28.81,ESE,112,1.6,5.0,61,0.00,,,0.00,Rainwise IP-100,2013-09-30 06:02:00,
2013-09-30 01:07:00,62.8,49.0,28.81,NNW,337,2.8,5.0,61,0.00,,,0.00,Rainwise IP-100,2013-09-30 06:07:00,
2013-09-30 01:12:00,62.7,49.0,28.81,North,360,1.9,4.0,61,0.00,,,0.00,Rainwise IP-100,2013-09-30 06:12:00,
2013-09-30 01:17:00,62.6,49.0,28.81,NNW,337,1.4,6.0,62,0.00,,,0.00,Rainwise IP-100,2013-09-30 06:17:00,
2013-09-30 01:22:00,62.4,49.0,28.81,NW,315,2.8,5.0,62,0.00,,,0.00,Rainwise IP-100,2013-09-30 06:22:00,
2013-09-30 01:27:00,62.2,49.0,28.81,NE,45,3.0,6.0,62,0.00,,,0.00,Rainwise IP-100,2013-09-30 06:27:00,
2013-09-30 01:32:00,62.1,49.0,28.81,NNW,337,1.9,6.0,62,0.00,,,0.00,Rainwise IP-100,2013-09-30 06:32:00,
2013-09-30 01:37:00,62.0,49.0,28.81,NNE,22,1.6,6.0,62,0.00,,,0.00,Rainwise IP-100,2013-09-30 06:37:00,
2013-09-30 01:42:00,61.9,49.0,28.82,East,90,3.3,5.0,63,0.00,,,0.00,Rainwise IP-100,2013-09-30 06:42:00,
2013-09-30 01:47:00,61.8,49.0,28.81,NE,45,3.3,7.0,63,0.00,,,0.00,Rainwise IP-100,2013-09-30 06:47:00,
2013-09-30 01:52:00,61.7,49.0,28.81,NE,45,1.2,4.0,64,0.00,,,0.00,Rainwise IP-100,2013-09-30 06:52:00,
2013-09-30 01:57:00,61.7,49.0,28.81,NW,315,2.3,5.0,64,0.00,,,0.00,Rainwise IP-100,2013-09-30 06:57:00,
2013-09-30 02:02:00,61.6,49.0,28.81,ENE,67,1.9,5.0,64,0.00,,,0.00,Rainwise IP-100,2013-09-30 07:02:00,
2013-09-30 02:07:00,61.6,49.0,28.81,SE,135,3.5,4.0,64,0.00,,,0.00,Rainwise IP-100,2013-09-30 07:07:00,
2013-09-30 02:12:00,61.6,49.0,28.80,NNW,337,1.2,5.0,64,0.00,,,0.00,Rainwise IP-100,2013-09-30 07:12:00,
2013-09-30 02:17:00,61.6,49.0,28.80,North,360,1.6,5.0,64,0.00,,,0.00,Rainwise IP-100,2013-09-30 07:17:00,
2013-09-30 02:22:00,61.6,49.0,28.80,NNE,22,2.8,6.0,64,0.00,,,0.00,Rainwise IP-100,2013-09-30 07:22:00,
2013-09-30 02:27:00,61.7,49.0,28.80,East,90,2.1,5.0,64,0.00,,,0.00,Rainwise IP-100,2013-09-30 07:27:00,
2013-09-30 02:32:00,61.7,49.0,28.80,East,90,2.6,5.0,64,0.00,,,0.00,Rainwise IP-100,2013-09-30 07:32:00,
2013-09-30 02:37:00,61.8,49.0,28.80,NE,45,3.0,6.0,64,0.00,,,0.00,Rainwise IP-100,2013-09-30 07:37:00,
2013-09-30 02:42:00,61.8,49.0,28.80,ENE,67,2.8,4.0,64,0.00,,,0.00,Rainwise IP-100,2013-09-30 07:42:00,
2013-09-30 02:47:00,62.0,50.0,28.79,ESE,112,3.7,6.0,64,0.00,,,0.00,Rainwise IP-100,2013-09-30 07:47:00,
2013-09-30 02:52:00,62.1,49.0,28.79,ENE,67,4.4,6.0,63,0.00,,,0.00,Rainwise IP-100,2013-09-30 07:52:00,
2013-09-30 02:57:00,62.1,49.0,28.79,West,270,3.5,6.0,63,0.00,,,0.00,Rainwise IP-100,2013-09-30 07:57:00,
2013-09-30 03:02:00,62.2,49.0,28.78,East,90,5.6,7.0,62,0.00,,,0.00,Rainwise IP-100,2013-09-30 08:02:00,
2013-09-30 03:07:00,62.3,49.0,28.78,NNW,337,2.6,6.0,62,0.00,,,0.00,Rainwise IP-100,2013-09-30 08:07:00,
2013-09-30 03:12:00,62.3,49.0,28.78,East,90,2.3,5.0,62,0.00,,,0.00,Rainwise IP-100,2013-09-30 08:12:00,
2013-09-30 03:17:00,62.4,49.0,28.78,NNE,22,3.0,6.0,62,0.00,,,0.00,Rainwise IP-100,2013-09-30 08:17:00,
2013-09-30 03:22:00,62.4,49.0,28.77,East,90,3.5,6.0,62,0.00,,,0.00,Rainwise IP-100,2013-09-30 08:22:00,
2013-09-30 03:27:00,62.4,49.0,28.77,NNE,22,4.0,7.0,62,0.00,,,0.00,Rainwise IP-100,2013-09-30 08:27:00,
2013-09-30 03:32:00,62.4,49.0,28.78,ENE,67,1.2,6.0,61,0.00,,,0.00,Rainwise IP-100,2013-09-30 08:32:00,
2013-09-30 03:37:00,62.5,49.0,28.77,ENE,67,3.3,7.0,62,0.00,,,0.00,Rainwise IP-100,2013-09-30 08:37:00,
2013-09-30 03:42:00,62.5,49.0,28.77,North,360,2.6,7.0,62,0.00,,,0.00,Rainwise IP-100,2013-09-30 08:42:00,
2013-09-30 03:47:00,62.4,49.0,28.77,NNE,22,3.3,6.0,62,0.00,,,0.00,Rainwise IP-100,2013-09-30 08:47:00,
2013-09-30 03:52:00,62.4,49.0,28.77,North,360,2.8,5.0,62,0.00,,,0.00,Rainwise IP-100,2013-09-30 08:52:00,
2013-09-30 03:57:00,62.4,49.0,28.77,North,360,4.9,8.0,62,0.00,,,0.00,Rainwise IP-100,2013-09-30 08:57:00,
2013-09-30 04:02:00,62.4,49.0,28.77,NNE,22,3.0,6.0,62,0.00,,,0.00,Rainwise IP-100,2013-09-30 09:02:00,
2013-09-30 04:07:00,62.3,49.0,28.77,NE,45,2.3,6.0,62,0.00,,,0.00,Rainwise IP-100,2013-09-30 09:07:00,
2013-09-30 04:12:00,62.2,49.0,28.77,West,270,2.1,7.0,63,0.00,,,0.00,Rainwise IP-100,2013-09-30 09:12:00,
2013-09-30 04:17:00,62.1,49.0,28.77,East,90,2.6,7.0,63,0.00,,,0.00,Rainwise IP-100,2013-09-30 09:17:00,
2013-09-30 04:22:00,62.0,49.0,28.77,ENE,67,4.0,7.0,63,0.00,,,0.00,Rainwise IP-100,2013-09-30 09:22:00,
2013-09-30 04:27:00,62.0,49.0,28.77,East,90,3.3,7.0,63,0.00,,,0.00,Rainwise IP-100,2013-09-30 09:27:00,
2013-09-30 04:32:00,61.9,49.0,28.76,West,270,1.6,5.0,63,0.00,,,0.00,Rainwise IP-100,2013-09-30 09:32:00,
2013-09-30 04:37:00,61.8,49.0,28.76,NNE,22,4.0,8.0,63,0.00,,,0.00,Rainwise IP-100,2013-09-30 09:37:00,
2013-09-30 04:42:00,61.8,49.0,28.76,ESE,112,6.1,6.1,63,0.00,,,0.00,Rainwise IP-100,2013-09-30 09:42:00,
2013-09-30 04:47:00,61.6,49.0,28.75,SW,225,1.9,7.0,64,0.00,,,0.00,Rainwise IP-100,2013-09-30 09:47:00,
2013-09-30 04:52:00,61.6,49.0,28.75,East,90,6.8,6.8,64,0.00,,,0.00,Rainwise IP-100,2013-09-30 09:52:00,
2013-09-30 04:57:00,61.6,49.0,28.75,SE,135,3.7,7.0,64,0.00,,,0.00,Rainwise IP-100,2013-09-30 09:57:00,
2013-09-30 05:02:00,61.6,49.0,28.75,SW,225,3.5,6.0,64,0.00,,,0.00,Rainwise IP-100,2013-09-30 10:02:00,
2013-09-30 05:07:00,61.5,50.0,28.75,West,270,3.3,7.0,65,0.00,,,0.00,Rainwise IP-100,2013-09-30 10:07:00,
2013-09-30 05:12:00,61.4,50.0,28.76,NE,45,2.1,6.0,65,0.00,,,0.00,Rainwise IP-100,2013-09-30 10:12:00,
2013-09-30 05:17:00,61.4,50.0,28.75,North,360,3.3,7.0,65,0.00,,,0.00,Rainwise IP-100,2013-09-30 10:17:00,
2013-09-30 05:22:00,61.4,49.0,28.75,ENE,67,3.3,8.0,64,0.00,,,0.00,Rainwise IP-100,2013-09-30 10:22:00,
2013-09-30 05:27:00,61.4,50.0,28.75,WNW,292,3.7,6.0,65,0.00,,,0.00,Rainwise IP-100,2013-09-30 10:27:00,
2013-09-30 05:32:00,61.3,50.0,28.75,NE,45,4.2,7.0,66,0.00,,,0.00,Rainwise IP-100,2013-09-30 10:32:00,
2013-09-30 05:37:00,61.2,50.0,28.75,East,90,2.8,6.0,66,0.00,,,0.00,Rainwise IP-100,2013-09-30 10:37:00,
2013-09-30 05:42:00,61.1,50.0,28.75,NE,45,2.3,5.0,66,0.00,,,0.00,Rainwise IP-100,2013-09-30 10:42:00,
2013-09-30 05:47:00,61.0,50.0,28.75,East,90,3.5,5.0,66,0.00,,,0.00,Rainwise IP-100,2013-09-30 10:47:00,
2013-09-30 05:52:00,60.9,50.0,28.75,NW,315,4.4,4.4,66,0.00,,,0.00,Rainwise IP-100,2013-09-30 10:52:00,
2013-09-30 05:57:00,60.8,50.0,28.75,NNW,337,2.1,4.0,67,0.00,,,0.00,Rainwise IP-100,2013-09-30 10:57:00,
2013-09-30 06:02:00,60.7,50.0,28.75,ENE,67,4.9,4.9,67,0.00,,,0.00,Rainwise IP-100,2013-09-30 11:02:00,
2013-09-30 06:07:00,60.6,50.0,28.75,East,90,0.0,4.0,67,0.00,,,0.00,Rainwise IP-100,2013-09-30 11:07:00,
2013-09-30 06:12:00,60.4,50.0,28.75,SE,135,1.4,2.0,68,0.00,,,0.00,Rainwise IP-100,2013-09-30 11:12:00,
2013-09-30 06:17:00,60.2,50.0,28.74,North,360,1.9,3.0,69,0.00,,,0.00,Rainwise IP-100,2013-09-30 11:17:00,
2013-09-30 06:22:00,60.2,50.0,28.74,ESE,112,2.1,4.0,69,0.00,,,0.00,Rainwise IP-100,2013-09-30 11:22:00,
2013-09-30 06:27:00,60.0,50.0,28.74,ENE,67,1.6,3.0,69,0.00,,,0.00,Rainwise IP-100,2013-09-30 11:27:00,
2013-09-30 06:32:00,59.9,50.0,28.74,NNW,337,1.6,1.6,69,0.00,,,0.00,Rainwise IP-100,2013-09-30 11:32:00,
2013-09-30 06:37:00,59.9,50.0,28.74,South,180,3.0,3.0,70,0.00,,,0.00,Rainwise IP-100,2013-09-30 11:37:00,
2013-09-30 06:42:00,59.9,50.0,28.74,NNW,337,1.2,3.0,70,0.00,,,0.00,Rainwise IP-100,2013-09-30 11:42:00,
2013-09-30 06:47:00,59.8,50.0,28.74,ENE,67,1.4,2.0,70,0.00,,,0.00,Rainwise IP-100,2013-09-30 11:47:00,
2013-09-30 06:52:00,59.8,50.0,28.74,East,90,1.4,3.0,70,0.00,,,0.00,Rainwise IP-100,2013-09-30 11:52:00,
2013-09-30 06:57:00,59.7,50.0,28.74,SE,135,3.0,3.0,70,0.00,,,0.00,Rainwise IP-100,2013-09-30 11:57:00,
2013-09-30 07:02:00,59.6,50.0,28.74,East,90,2.6,3.0,70,0.00,,,0.00,Rainwise IP-100,2013-09-30 12:02:00,
2013-09-30 07:07:00,59.5,50.0,28.74,ENE,67,1.2,4.0,70,0.00,,,0.00,Rainwise IP-100,2013-09-30 12:07:00,
2013-09-30 07:12:00,59.5,50.0,28.74,East,90,1.6,4.0,70,0.00,,,0.00,Rainwise IP-100,2013-09-30 12:12:00,
2013-09-30 07:17:00,59.3,50.0,28.74,ENE,67,4.2,4.2,71,0.00,,,0.00,Rainwise IP-100,2013-09-30 12:17:00,
2013-09-30 07:22:00,59.3,50.0,28.74,WNW,292,1.9,4.0,71,0.00,,,0.00,Rainwise IP-100,2013-09-30 12:22:00,
2013-09-30 07:27:00,59.3,50.0,28.74,NNW,337,0.0,1.0,71,0.00,,,0.00,Rainwise IP-100,2013-09-30 12:27:00,
2013-09-30 07:32:00,59.3,50.0,28.74,NNW,337,0.0,0.0,71,0.00,,,0.00,Rainwise IP-100,2013-09-30 12:32:00,
2013-09-30 07:41:00,59.3,50.0,28.74,ESE,112,0.0,0.0,71,0.00,,,0.00,Rainwise IP-100,2013-09-30 12:41:00,
2013-09-30 07:46:00,59.3,50.0,28.74,ESE,112,0.0,0.0,71,0.00,,,0.00,Rainwise IP-100,2013-09-30 12:46:00,
2013-09-30 08:21:00,59.9,50.0,28.74,South,180,0.0,0.0,71,0.00,,,0.25,Rainwise IP-100,2013-09-30 13:21:00,
2013-09-30 08:26:00,59.9,50.0,28.74,South,180,0.0,0.0,71,1.50,,,0.25,Rainwise IP-100,2013-09-30 13:26:00,
2013-09-30 08:31:00,59.9,50.0,28.74,NW,315,0.0,0.0,71,1.50,,,0.25,Rainwise IP-100,2013-09-30 13:31:00,
2013-09-30 08:36:00,59.9,50.0,28.74,NW,315,0.0,0.0,71,0.00,,,0.25,Rainwise IP-100,2013-09-30 13:36:00,
2013-09-30 09:04:00,61.5,51.0,28.73,ENE,67,3.5,0.0,69,0.00,,,0.25,Rainwise IP-100,2013-09-30 14:04:00,
2013-09-30 09:09:00,61.5,51.0,28.73,NNW,337,2.3,3.0,69,0.00,,,0.25,Rainwise IP-100,2013-09-30 14:09:00,
2013-09-30 09:14:00,61.4,51.0,28.73,NNE,22,3.7,3.7,69,0.00,,,0.25,Rainwise IP-100,2013-09-30 14:14:00,
2013-09-30 09:19:00,61.4,51.0,28.73,NNE,22,3.7,3.7,69,0.00,,,0.25,Rainwise IP-100,2013-09-30 14:19:00,
2013-09-30 09:39:00,62.8,51.0,28.72,NNW,337,2.8,0.0,66,0.00,,,0.25,Rainwise IP-100,2013-09-30 14:39:00,
2013-09-30 09:44:00,62.8,51.0,28.72,NNW,337,2.8,2.8,66,0.00,,,0.25,Rainwise IP-100,2013-09-30 14:44:00,
2013-09-30 09:49:00,63.0,51.0,28.72,East,90,2.6,3.0,66,0.00,,,0.25,Rainwise IP-100,2013-09-30 14:49:00,
2013-09-30 09:54:00,63.1,51.0,28.72,NNE,22,1.6,2.0,66,0.00,,,0.25,Rainwise IP-100,2013-09-30 14:54:00,
2013-09-30 09:59:00,63.1,51.0,28.72,NNE,22,1.6,1.6,66,0.00,,,0.25,Rainwise IP-100,2013-09-30 14:59:00,
2013-09-30 10:49:00,66.3,52.0,28.72,SE,135,0.0,0.0,60,0.00,,,0.25,Rainwise IP-100,2013-09-30 15:49:00,
2013-09-30 10:54:00,66.4,52.0,28.72,SSE,157,1.2,2.0,60,0.00,,,0.25,Rainwise IP-100,2013-09-30 15:54:00,
2013-09-30 10:59:00,66.5,52.0,28.72,SW,225,0.0,1.0,59,0.00,,,0.25,Rainwise IP-100,2013-09-30 15:59:00,
2013-09-30 11:04:00,66.5,52.0,28.72,SW,225,0.0,0.0,59,0.00,,,0.25,Rainwise IP-100,2013-09-30 16:04:00,
2013-09-30 11:44:00,68.6,53.0,28.71,SW,225,1.6,0.0,57,0.00,,,0.25,Rainwise IP-100,2013-09-30 16:44:00,
2013-09-30 11:49:00,68.6,53.0,28.71,NW,315,0.0,1.0,57,0.00,,,0.25,Rainwise IP-100,2013-09-30 16:49:00,
2013-09-30 11:56:00,69.3,53.0,28.71,NNE,22,1.4,0.0,56,0.00,,,0.25,Rainwise IP-100,2013-09-30 16:56:00,
2013-09-30 12:01:00,69.5,53.0,28.71,NNE,22,1.6,1.6,55,0.00,,,0.25,Rainwise IP-100,2013-09-30 17:01:00,
2013-09-30 12:06:00,70.0,53.0,28.71,SSW,202,1.2,1.2,54,0.00,,,0.25,Rainwise IP-100,2013-09-30 17:06:00,
2013-09-30 12:11:00,70.1,53.0,28.71,WSW,247,0.0,4.0,54,0.00,,,0.25,Rainwise IP-100,2013-09-30 17:11:00,
2013-09-30 12:16:00,70.1,53.0,28.71,NNW,337,1.4,1.4,54,0.00,,,0.25,Rainwise IP-100,2013-09-30 17:16:00,
2013-09-30 12:21:00,70.4,53.0,28.71,NW,315,2.8,3.0,54,0.00,,,0.25,Rainwise IP-100,2013-09-30 17:21:00,
2013-09-30 12:26:00,70.5,53.0,28.71,North,360,0.0,2.0,54,0.00,,,0.25,Rainwise IP-100,2013-09-30 17:26:00,
2013-09-30 12:31:00,70.4,53.0,28.71,SE,135,2.1,3.0,53,0.00,,,0.25,Rainwise IP-100,2013-09-30 17:31:00,
2013-09-30 12:36:00,70.3,53.0,28.71,NNW,337,1.2,2.0,54,0.00,,,0.25,Rainwise IP-100,2013-09-30 17:36:00,
2013-09-30 12:41:00,70.5,53.0,28.71,NNE,22,1.4,4.0,54,0.00,,,0.25,Rainwise IP-100,2013-09-30 17:41:00,
2013-09-30 12:46:00,70.4,53.0,28.70,East,90,1.2,3.0,53,0.00,,,0.25,Rainwise IP-100,2013-09-30 17:46:00,
2013-09-30 12:51:00,70.4,53.0,28.71,WNW,292,1.4,2.0,53,0.00,,,0.25,Rainwise IP-100,2013-09-30 17:51:00,
2013-09-30 12:56:00,70.7,53.0,28.70,NNW,337,1.2,4.0,53,0.00,,,0.25,Rainwise IP-100,2013-09-30 17:56:00,
2013-09-30 13:01:00,70.9,53.0,28.70,WSW,247,1.6,4.0,52,0.00,,,0.25,Rainwise IP-100,2013-09-30 18:01:00,
2013-09-30 13:06:00,71.1,53.0,28.70,ENE,67,2.8,3.0,52,0.00,,,0.25,Rainwise IP-100,2013-09-30 18:06:00,
2013-09-30 13:11:00,71.4,53.0,28.70,North,360,1.9,4.0,52,0.00,,,0.25,Rainwise IP-100,2013-09-30 18:11:00,
2013-09-30 13:16:00,71.8,53.0,28.70,WNW,292,2.3,6.0,51,0.00,,,0.25,Rainwise IP-100,2013-09-30 18:16:00,
2013-09-30 13:21:00,72.1,53.0,28.69,NNE,22,0.0,6.0,51,0.00,,,0.25,Rainwise IP-100,2013-09-30 18:21:00,
2013-09-30 13:26:00,72.3,53.0,28.69,East,90,1.2,2.0,51,0.00,,,0.25,Rainwise IP-100,2013-09-30 18:26:00,
2013-09-30 13:31:00,72.4,53.0,28.69,West,270,1.2,2.0,51,0.00,,,0.25,Rainwise IP-100,2013-09-30 18:31:00,
2013-09-30 13:36:00,72.5,53.0,28.69,SE,135,1.9,4.0,50,0.00,,,0.25,Rainwise IP-100,2013-09-30 18:36:00,
2013-09-30 13:41:00,72.7,53.0,28.68,NNW,337,0.0,3.0,50,0.00,,,0.25,Rainwise IP-100,2013-09-30 18:41:00,
2013-09-30 13:46:00,73.0,53.0,28.69,NW,315,1.4,4.0,50,0.00,,,0.25,Rainwise IP-100,2013-09-30 18:46:00,
2013-09-30 13:51:00,73.2,53.0,28.68,NNW,337,0.0,6.0,49,0.00,,,0.25,Rainwise IP-100,2013-09-30 18:51:00,
2013-09-30 13:56:00,73.3,53.0,28.68,South,180,0.0,5.0,49,0.00,,,0.25,Rainwise IP-100,2013-09-30 18:56:00,
2013-09-30 14:01:00,73.4,53.0,28.68,West,270,0.0,5.0,49,0.00,,,0.25,Rainwise IP-100,2013-09-30 19:01:00,
2013-09-30 14:06:00,73.7,53.0,28.67,NNW,337,0.0,3.0,49,0.00,,,0.25,Rainwise IP-100,2013-09-30 19:06:00,
2013-09-30 14:11:00,74.1,53.0,28.68,South,180,0.0,4.0,48,0.00,,,0.25,Rainwise IP-100,2013-09-30 19:11:00,
2013-09-30 14:16:00,74.3,53.0,28.68,ENE,67,3.7,4.0,48,0.00,,,0.25,Rainwise IP-100,2013-09-30 19:16:00,
2013-09-30 14:21:00,74.5,54.0,28.67,North,360,2.6,4.0,48,0.00,,,0.25,Rainwise IP-100,2013-09-30 19:21:00,
2013-09-30 14:26:00,74.9,54.0,28.67,ESE,112,2.6,4.0,48,0.00,,,0.25,Rainwise IP-100,2013-09-30 19:26:00,
2013-09-30 14:31:00,75.0,53.0,28.67,NE,45,2.6,3.0,47,0.00,,,0.25,Rainwise IP-100,2013-09-30 19:31:00,
2013-09-30 14:36:00,75.0,53.0,28.66,ESE,112,3.7,4.0,47,0.00,,,0.25,Rainwise IP-100,2013-09-30 19:36:00,
2013-09-30 14:41:00,75.1,53.0,28.67,NNE,22,1.9,4.0,47,0.00,,,0.25,Rainwise IP-100,2013-09-30 19:41:00,
2013-09-30 14:46:00,75.2,53.0,28.66,East,90,2.8,4.0,47,0.00,,,0.25,Rainwise IP-100,2013-09-30 19:46:00,
2013-09-30 14:51:00,75.4,54.0,28.66,NNE,22,1.9,4.0,47,0.00,,,0.25,Rainwise IP-100,2013-09-30 19:51:00,
2013-09-30 14:56:00,75.6,53.0,28.66,SSW,202,1.4,4.0,46,0.00,,,0.25,Rainwise IP-100,2013-09-30 19:56:00,
2013-09-30 15:01:00,75.6,53.0,28.66,WNW,292,3.0,5.0,46,0.00,,,0.25,Rainwise IP-100,2013-09-30 20:01:00,
2013-09-30 15:06:00,75.6,53.0,28.66,SW,225,5.6,6.0,46,0.00,,,0.25,Rainwise IP-100,2013-09-30 20:06:00,
2013-09-30 15:11:00,75.8,53.0,28.66,NE,45,2.3,6.0,46,0.00,,,0.25,Rainwise IP-100,2013-09-30 20:11:00,
2013-09-30 15:16:00,76.0,54.0,28.66,East,90,1.4,3.0,47,0.00,,,0.25,Rainwise IP-100,2013-09-30 20:16:00,
2013-09-30 15:21:00,76.1,53.0,28.66,West,270,0.0,4.0,46,0.00,,,0.25,Rainwise IP-100,2013-09-30 20:21:00,
2013-09-30 15:26:00,76.3,54.0,28.65,SE,135,3.0,4.0,46,0.00,,,0.25,Rainwise IP-100,2013-09-30 20:26:00,
2013-09-30 15:31:00,76.3,53.0,28.65,ENE,67,2.1,5.0,45,0.00,,,0.25,Rainwise IP-100,2013-09-30 20:31:00,
2013-09-30 15:36:00,76.0,53.0,28.65,NNW,337,1.2,6.0,45,0.00,,,0.25,Rainwise IP-100,2013-09-30 20:36:00,
2013-09-30 15:41:00,75.9,53.0,28.65,South,180,0.0,4.0,46,0.00,,,0.25,Rainwise IP-100,2013-09-30 20:41:00,
2013-09-30 15:46:00,76.1,53.0,28.66,ESE,112,0.0,7.0,45,0.00,,,0.25,Rainwise IP-100,2013-09-30 20:46:00,
2013-09-30 15:51:00,76.4,54.0,28.65,East,90,0.0,3.0,46,0.00,,,0.25,Rainwise IP-100,2013-09-30 20:51:00,
2013-09-30 15:56:00,76.4,54.0,28.66,NNW,337,2.8,4.0,46,0.00,,,0.25,Rainwise IP-100,2013-09-30 20:56:00,
2013-09-30 16:01:00,76.5,54.0,28.65,SSW,202,0.0,4.0,46,0.00,,,0.25,Rainwise IP-100,2013-09-30 21:01:00,
2013-09-30 16:06:00,76.6,53.0,28.65,ENE,67,2.8,3.0,45,0.00,,,0.25,Rainwise IP-100,2013-09-30 21:06:00,
2013-09-30 16:11:00,76.7,54.0,28.65,NNW,337,1.6,5.0,45,0.00,,,0.25,Rainwise IP-100,2013-09-30 21:11:00,
2013-09-30 16:16:00,76.8,54.0,28.65,North,360,1.4,3.0,45,0.00,,,0.25,Rainwise IP-100,2013-09-30 21:16:00,
2013-09-30 16:21:00,76.9,54.0,28.65,ENE,67,4.0,4.0,45,0.00,,,0.25,Rainwise IP-100,2013-09-30 21:21:00,
2013-09-30 16:26:00,77.1,54.0,28.64,NW,315,3.0,4.0,45,0.00,,,0.25,Rainwise IP-100,2013-09-30 21:26:00,
2013-09-30 16:31:00,77.0,54.0,28.64,NE,45,1.6,4.0,45,0.00,,,0.25,Rainwise IP-100,2013-09-30 21:31:00,
2013-09-30 16:36:00,76.9,54.0,28.64,SSE,157,1.6,3.0,45,0.00,,,0.25,Rainwise IP-100,2013-09-30 21:36:00,
2013-09-30 16:41:00,76.8,54.0,28.64,NNW,337,0.0,6.0,46,0.00,,,0.25,Rainwise IP-100,2013-09-30 21:41:00,
2013-09-30 16:46:00,76.8,54.0,28.64,East,90,1.4,7.0,45,0.00,,,0.25,Rainwise IP-100,2013-09-30 21:46:00,
2013-09-30 16:51:00,76.7,54.0,28.64,ESE,112,2.8,6.0,45,0.00,,,0.25,Rainwise IP-100,2013-09-30 21:51:00,
2013-09-30 16:56:00,76.5,53.0,28.64,SSW,202,1.6,4.0,45,0.00,,,0.25,Rainwise IP-100,2013-09-30 21:56:00,
2013-09-30 17:01:00,76.5,53.0,28.64,NNW,337,2.3,5.0,45,0.00,,,0.25,Rainwise IP-100,2013-09-30 22:01:00,
2013-09-30 17:06:00,76.5,53.0,28.64,NNE,22,3.3,4.0,45,0.00,,,0.25,Rainwise IP-100,2013-09-30 22:06:00,
2013-09-30 17:11:00,76.6,53.0,28.65,NNE,22,3.0,4.0,45,0.00,,,0.25,Rainwise IP-100,2013-09-30 22:11:00,
2013-09-30 17:16:00,76.7,54.0,28.64,NNW,337,2.3,5.0,45,0.00,,,0.25,Rainwise IP-100,2013-09-30 22:16:00,
2013-09-30 17:21:00,76.7,54.0,28.64,ENE,67,3.5,3.5,45,0.00,,,0.25,Rainwise IP-100,2013-09-30 22:21:00,
2013-09-30 17:26:00,76.5,54.0,28.64,East,90,1.9,3.0,46,0.00,,,0.25,Rainwise IP-100,2013-09-30 22:26:00,
2013-09-30 17:31:00,76.3,54.0,28.64,East,90,4.0,4.0,46,0.00,,,0.25,Rainwise IP-100,2013-09-30 22:31:00,
2013-09-30 17:36:00,76.4,54.0,28.64,SE,135,3.7,4.0,46,0.00,,,0.25,Rainwise IP-100,2013-09-30 22:36:00,
2013-09-30 17:41:00,76.4,54.0,28.64,NNE,22,0.0,3.0,46,0.00,,,0.25,Rainwise IP-100,2013-09-30 22:41:00,
2013-09-30 17:46:00,76.3,54.0,28.63,WNW,292,1.9,4.0,46,0.00,,,0.25,Rainwise IP-100,2013-09-30 22:46:00,
2013-09-30 17:51:00,76.1,54.0,28.64,ESE,112,3.3,4.0,47,0.00,,,0.25,Rainwise IP-100,2013-09-30 22:51:00,
2013-09-30 17:56:00,75.9,54.0,28.64,WNW,292,1.2,3.0,47,0.00,,,0.25,Rainwise IP-100,2013-09-30 22:56:00,
2013-09-30 18:01:00,75.9,54.0,28.64,WNW,292,1.2,2.0,47,0.00,,,0.25,Rainwise IP-100,2013-09-30 23:01:00,
2013-09-30 18:06:00,75.6,55.0,28.64,NNW,337,1.9,1.9,49,0.00,,,0.25,Rainwise IP-100,2013-09-30 23:06:00,
2013-09-30 18:11:00,75.1,56.0,28.63,NNW,337,1.9,1.9,51,0.00,,,0.25,Rainwise IP-100,2013-09-30 23:11:00,
2013-09-30 18:16:00,75.2,55.0,28.64,North,360,1.2,2.0,50,0.00,,,0.25,Rainwise IP-100,2013-09-30 23:16:00,
2013-09-30 18:21:00,75.4,56.0,28.64,NNW,337,0.0,2.0,50,0.00,,,0.25,Rainwise IP-100,2013-09-30 23:21:00,
2013-09-30 18:26:00,75.2,55.0,28.64,ESE,112,1.6,4.0,50,0.00,,,0.25,Rainwise IP-100,2013-09-30 23:26:00,
2013-09-30 18:31:00,74.9,56.0,28.65,North,360,1.6,3.0,51,0.00,,,0.25,Rainwise IP-100,2013-09-30 23:31:00,
2013-09-30 18:36:00,74.7,56.0,28.65,North,360,1.2,3.0,52,0.00,,,0.25,Rainwise IP-100,2013-09-30 23:36:00,
2013-09-30 18:41:00,74.4,56.0,28.65,NW,315,1.9,2.0,52,0.00,,,0.25,Rainwise IP-100,2013-09-30 23:41:00,
2013-09-30 18:46:00,73.7,56.0,28.65,ESE,112,3.7,3.7,53,0.00,,,0.25,Rainwise IP-100,2013-09-30 23:46:00,
2013-09-30 18:51:00,73.4,55.0,28.65,SE,135,4.2,4.2,53,0.00,,,0.25,Rainwise IP-100,2013-09-30 23:51:00,
2013-09-30 18:56:00,73.3,55.0,28.65,North,360,1.2,4.0,53,0.00,,,0.25,Rainwise IP-100,2013-09-30 23:56:00,
2013-09-30 19:01:00,73.1,55.0,28.65,East,90,2.1,4.0,54,0.00,,,0.25,Rainwise IP-100,2013-10-01 00:01:00,
2013-09-30 19:06:00,72.9,55.0,28.65,North,360,0.0,4.0,54,0.00,,,0.25,Rainwise IP-100,2013-10-01 00:06:00,
2013-09-30 19:11:00,72.7,55.0,28.65,NNW,337,2.1,4.0,54,0.00,,,0.25,Rainwise IP-100,2013-10-01 00:11:00,
2013-09-30 19:16:00,72.4,55.0,28.65,WNW,292,1.2,2.0,55,0.00,,,0.25,Rainwise IP-100,2013-10-01 00:16:00,
2013-09-30 19:21:00,72.4,55.0,28.65,WNW,292,1.2,1.2,55,0.00,,,0.25,Rainwise IP-100,2013-10-01 00:21:00,
2013-09-30 19:30:00,71.4,56.0,28.66,ESE,112,2.1,0.0,58,0.00,,,0.25,Rainwise IP-100,2013-10-01 00:30:00,
2013-09-30 19:35:00,71.2,56.0,28.65,SE,135,1.9,2.0,58,0.00,,,0.25,Rainwise IP-100,2013-10-01 00:35:00,
2013-09-30 19:40:00,71.2,56.0,28.65,SE,135,1.9,1.9,58,0.00,,,0.25,Rainwise IP-100,2013-10-01 00:40:00,
2013-09-30 19:45:00,70.7,55.0,28.66,ESE,112,0.0,1.0,59,0.00,,,0.25,Rainwise IP-100,2013-10-01 00:45:00,
2013-09-30 19:50:00,70.7,55.0,28.66,NNW,337,1.6,0.0,59,0.00,,,0.25,Rainwise IP-100,2013-10-01 00:50:00,
2013-09-30 19:55:00,70.7,55.0,28.66,NNW,337,1.6,1.6,59,0.00,,,0.25,Rainwise IP-100,2013-10-01 00:55:00,
2013-09-30 20:00:00,70.6,55.0,28.66,SE,135,0.0,1.0,59,0.00,,,0.25,Rainwise IP-100,2013-10-01 01:00:00,
2013-09-30 20:05:00,70.4,55.0,28.67,NNW,337,0.0,1.0,59,0.00,,,0.25,Rainwise IP-100,2013-10-01 01:05:00,
2013-09-30 20:10:00,70.3,55.0,28.67,East,90,1.6,1.6,59,0.00,,,0.25,Rainwise IP-100,2013-10-01 01:10:00,
2013-09-30 20:15:00,70.2,55.0,28.67,ESE,112,0.0,2.0,59,0.00,,,0.25,Rainwise IP-100,2013-10-01 01:15:00,
2013-09-30 20:20:00,70.1,55.0,28.67,NNE,22,0.0,0.0,59,0.00,,,0.25,Rainwise IP-100,2013-10-01 01:20:00,
2013-09-30 20:25:00,70.2,55.0,28.67,ESE,112,0.0,0.0,59,0.00,,,0.25,Rainwise IP-100,2013-10-01 01:25:00,
2013-09-30 20:30:00,70.1,55.0,28.67,NE,45,1.4,1.4,59,0.00,,,0.25,Rainwise IP-100,2013-10-01 01:30:00,
2013-09-30 20:35:00,69.9,55.0,28.68,NNW,337,0.0,2.0,59,0.00,,,0.25,Rainwise IP-100,2013-10-01 01:35:00,
2013-09-30 20:40:00,69.9,55.0,28.68,NNW,337,0.0,0.0,59,0.00,,,0.25,Rainwise IP-100,2013-10-01 01:40:00,
2013-09-30 20:45:00,69.6,55.0,28.68,NNW,337,1.2,0.0,60,0.00,,,0.25,Rainwise IP-100,2013-10-01 01:45:00,
2013-09-30 20:50:00,69.4,54.0,28.67,NNE,22,0.0,1.0,60,0.00,,,0.25,Rainwise IP-100,2013-10-01 01:50:00,
2013-09-30 20:55:00,69.4,54.0,28.67,NNE,22,0.0,0.0,60,0.00,,,0.25,Rainwise IP-100,2013-10-01 01:55:00,
2013-09-30 21:02:00,68.9,55.0,28.68,ESE,112,0.0,0.0,62,0.00,,,0.25,Rainwise IP-100,2013-10-01 02:02:00,
2013-09-30 21:07:00,68.8,54.0,28.68,NNE,22,0.0,0.0,62,0.00,,,0.25,Rainwise IP-100,2013-10-01 02:07:00,
2013-09-30 21:12:00,68.8,54.0,28.68,NNE,22,0.0,0.0,62,0.00,,,0.25,Rainwise IP-100,2013-10-01 02:12:00,
2013-09-30 21:17:00,68.8,54.0,28.68,NNE,22,0.0,0.0,62,0.00,,,0.25,Rainwise IP-100,2013-10-01 02:17:00,
2013-09-30 21:22:00,69.0,54.0,28.68,NNW,337,2.6,3.0,61,0.00,,,0.25,Rainwise IP-100,2013-10-01 02:22:00,
2013-09-30 21:27:00,69.0,54.0,28.68,NNW,337,2.1,3.0,60,0.00,,,0.25,Rainwise IP-100,2013-10-01 02:27:00,
2013-09-30 21:32:00,69.0,54.0,28.68,ESE,112,2.1,2.1,61,0.00,,,0.25,Rainwise IP-100,2013-10-01 02:32:00,
2013-09-30 21:37:00,68.9,54.0,28.68,NNW,337,2.6,2.6,61,0.00,,,0.25,Rainwise IP-100,2013-10-01 02:37:00,
2013-09-30 21:42:00,68.9,54.0,28.68,NE,45,2.1,3.0,61,0.00,,,0.25,Rainwise IP-100,2013-10-01 02:42:00,
2013-09-30 21:47:00,68.9,54.0,28.69,NNW,337,1.2,2.0,61,0.00,,,0.25,Rainwise IP-100,2013-10-01 02:47:00,
2013-09-30 21:52:00,68.6,54.0,28.68,North,360,2.3,2.3,61,0.00,,,0.25,Rainwise IP-100,2013-10-01 02:52:00,
2013-09-30 21:57:00,68.6,54.0,28.68,North,360,2.3,2.3,61,0.00,,,0.25,Rainwise IP-100,2013-10-01 02:57:00,
2013-09-30 22:06:00,68.3,54.0,28.68,WNW,292,2.8,0.0,62,0.00,,,0.25,Rainwise IP-100,2013-10-01 03:06:00,
2013-09-30 22:11:00,68.3,54.0,28.68,NE,45,1.9,2.0,62,0.00,,,0.25,Rainwise IP-100,2013-10-01 03:11:00,
2013-09-30 22:20:00,68.0,54.0,28.68,ESE,112,0.0,1.0,62,0.00,,,0.25,Rainwise IP-100,2013-10-01 03:20:00,
2013-09-30 22:25:00,68.0,54.0,28.68,ESE,112,0.0,0.0,62,0.00,,,0.25,Rainwise IP-100,2013-10-01 03:25:00,
2013-09-30 22:30:00,67.8,54.0,28.68,NNE,22,0.0,2.0,62,0.00,,,0.25,Rainwise IP-100,2013-10-01 03:30:00,
2013-09-30 22:35:00,67.7,54.0,28.68,ESE,112,3.5,3.5,63,0.00,,,0.25,Rainwise IP-100,2013-10-01 03:35:00,
2013-09-30 22:40:00,67.7,54.0,28.68,ESE,112,3.5,3.5,63,0.00,,,0.25,Rainwise IP-100,2013-10-01 03:40:00,
2013-09-30 22:45:00,67.5,54.0,28.68,ENE,67,0.0,3.0,63,0.00,,,0.25,Rainwise IP-100,2013-10-01 03:45:00,
2013-09-30 22:50:00,67.5,54.0,28.68,ENE,67,0.0,0.0,63,0.00,,,0.25,Rainwise IP-100,2013-10-01 03:50:00,
2013-09-30 22:55:00,67.3,54.0,28.68,East,90,1.9,1.9,63,0.00,,,0.25,Rainwise IP-100,2013-10-01 03:55:00,
2013-09-30 23:00:00,67.1,54.0,28.68,NNE,22,2.8,2.8,64,0.00,,,0.25,Rainwise IP-100,2013-10-01 04:00:00,
2013-09-30 23:01:00,67.1,54.0,28.68,NNE,22,2.8,2.8,64,0.00,,,0.25,Rainwise IP-100,2013-10-01 04:01:00,
2013-09-30 23:02:00,67.1,54.0,28.68,NNE,22,2.8,2.8,64,0.00,,,0.25,Rainwise IP-100,2013-10-01 04:02:00,
2013-09-30 23:07:00,67.1,54.0,28.68,NNE,22,2.8,2.8,64,0.00,,,0.25,Rainwise IP-100,2013-10-01 04:07:00,
2013-09-30 23:12:00,67.0,54.0,28.68,ESE,112,0.0,2.0,64,0.00,,,0.25,Rainwise IP-100,2013-10-01 04:12:00,
2013-09-30 23:17:00,67.0,54.0,28.68,ESE,112,0.0,0.0,64,0.00,,,0.25,Rainwise IP-100,2013-10-01 04:17:00,
2013-09-30 23:22:00,66.6,54.0,28.68,NNW,337,1.4,1.4,64,0.00,,,0.25,Rainwise IP-100,2013-10-01 04:22:00,
2013-09-30 23:27:00,66.5,54.0,28.68,NNE,22,0.0,1.0,64,0.00,,,0.25,Rainwise IP-100,2013-10-01 04:27:00,
2013-09-30 23:32:00,66.5,54.0,28.67,WSW,247,0.0,0.0,64,0.00,,,0.25,Rainwise IP-100,2013-10-01 04:32:00,
2013-09-30 23:37:00,66.4,54.0,28.67,NNW,337,1.2,2.0,64,0.00,,,0.25,Rainwise IP-100,2013-10-01 04:37:00,
2013-09-30 23:42:00,66.4,54.0,28.68,ENE,67,0.0,2.0,64,0.00,,,0.25,Rainwise IP-100,2013-10-01 04:42:00,
2013-09-30 23:47:00,66.2,54.0,28.68,North,360,1.6,1.6,65,0.00,,,0.25,Rainwise IP-100,2013-10-01 04:47:00,
2013-09-30 23:52:00,66.3,54.0,28.68,NNW,337,1.2,1.2,65,0.00,,,0.25,Rainwise IP-100,2013-10-01 04:52:00,
2013-09-30 23:57:00,66.2,54.0,28.67,East,90,0.0,1.0,65,0.00,,,0.25,Rainwise IP-100,2013-10-01 04:57:00,